Location: *
(44.3925°N, 5.4708°E)
Time: 08:45:39
(UTC+00:00)

Cosmos 1190 Rocket - Pass Details

Date: 18 September 2019
Orbit: 757 x 780 km, 74.1° (Epoch: 13 October)

Event Time Altitude Azimuth Distance (km) Brightness Sun altitude
Rises 19:19:58 0° 341° (NNW) 3,270 7.9 -17.6°
Reaches altitude 10° 19:22:24 10° 344° (NNW) 2,336 7.0 -18.0°
Maximum altitude 19:27:40 67° 67° (ENE) 840 4.0 -18.9°
Enters shadow 19:29:58 34° 140° (SE) 1,264 4.6 -19.2°
